DW9420 New Gretna NJ US current weather conditions

sailwx.info

Wind from 143

Air temperature 17.2° C
Dewpoint 16.6° C

Last reported at 2019-Dec-14 12:10 UTC.
Time now 2019-Dec-14 13:01 UTC

Location: N 39°35' W 074°28'.
View on Google Maps.

See reports from other nearby stations

  
Tides and Currents Weather Stations Pressure Air Temp Water Temp Dewpoint Dewpoint Depression Visibility Wind Speed Wind Dir Waves Ship Positions
date/time (UTC)wind fromknots sea level pressurealtimeterstation pressurevisibilityair tempwater tempwave heightnotes
2019-Dec-14 12:10 143 17.2
2019-Dec-14 12:00 146 0 gusting 1 17.2
2019-Dec-14 10:45 112 16.7
2019-Dec-14 10:30 101 16.7
2019-Dec-14 10:20 158 16.7
2019-Dec-14 10:05 112 16.1
2019-Dec-14 10:00 112 16.1
2019-Dec-14 09:55 112 0 gusting 2 16.1
2019-Dec-14 09:45 131 1 gusting 4 16.1
2019-Dec-14 09:40 137 1 gusting 4 16.1
2019-Dec-14 09:35 151 1 gusting 4 16.1
2019-Dec-14 09:20 121 0 gusting 1 16.1
2019-Dec-14 08:45 131 1 gusting 4 16.1
2019-Dec-14 08:40 098 2 gusting 5 16.7
2019-Dec-14 08:30 158 16.7
2019-Dec-14 08:20 158 16.7
2019-Dec-14 08:15 158 16.7
2019-Dec-14 08:05 158 16.7
2019-Dec-14 07:40 158 16.7
2019-Dec-14 07:35 158 16.7
2019-Dec-14 07:30 158 16.7
2019-Dec-14 07:25 158 16.7
2019-Dec-14 07:00 158 16.7
2019-Dec-14 06:50 158 16.7
2019-Dec-14 06:45 158 16.7
2019-Dec-14 06:10 116 0 gusting 2 16.7
2019-Dec-14 06:05 098 0 gusting 4 16.7
2019-Dec-14 06:00 094 1 gusting 4 17.2
2019-Dec-14 05:50 107 1 gusting 4 17.2
2019-Dec-14 05:45 105 0 gusting 4 17.2
2019-Dec-14 05:35 104 0 gusting 4 17.2
2019-Dec-14 05:30 105 2 gusting 6 17.2
2019-Dec-14 05:25 097 2 gusting 6 17.2
2019-Dec-14 05:10 064 2 gusting 5 17.2
2019-Dec-14 05:05 075 2 gusting 5 17.2
2019-Dec-14 05:00 078 2 gusting 6 17.2
2019-Dec-14 04:55 103 2 gusting 6 17.2
2019-Dec-14 04:40 076 4 gusting 8 17.2
2019-Dec-14 04:35 072 2 gusting 6 17.2
2019-Dec-14 04:20 070 3 gusting 7 17.2
2019-Dec-14 04:15 070 4 gusting 7 17.2
2019-Dec-14 04:00 067 4 gusting 6 17.2
2019-Dec-14 03:55 085 4 gusting 6 17.2
2019-Dec-14 03:45 075 4 gusting 7 17.2
2019-Dec-14 03:40 085 5 gusting 6 17.2
2019-Dec-14 03:15 065 4 gusting 8 17.2
2019-Dec-14 03:10 067 4 gusting 6 17.2
2019-Dec-14 02:35 080 2 gusting 7 16.7
2019-Dec-14 02:25 066 4 gusting 11 16.7
2019-Dec-14 02:05 098 4 gusting 6 16.7
2019-Dec-14 02:00 099 4 gusting 8 16.7
2019-Dec-14 01:40 074 4 gusting 6 16.7
2019-Dec-14 01:35 069 3 gusting 6 16.7
2019-Dec-14 01:30 082 4 gusting 6 16.7
2019-Dec-14 01:25 084 4 gusting 10 16.7
2019-Dec-14 01:20 078 4 gusting 10 16.7
2019-Dec-14 01:10 107 4 gusting 6 16.7
2019-Dec-14 01:00 073 2 gusting 6 16.1
2019-Dec-14 00:55 052 3 gusting 6 16.1
2019-Dec-14 00:40 077 1 gusting 4 16.1
2019-Dec-14 00:35 023 1 gusting 1 15.6
2019-Dec-14 00:25 050 0 gusting 6 15.6
2019-Dec-14 00:20 022 0 gusting 6 15.6
2019-Dec-14 00:10 297 0 gusting 2 15.6
2019-Dec-14 00:05 311 15.6
2019-Dec-14 00:00 292 15.6
2019-Dec-13 23:50 022 15.6
2019-Dec-13 23:45 060 1 gusting 4 15.6
2019-Dec-13 23:30 044 1 gusting 2 15.6
2019-Dec-13 23:20 092 1 gusting 4 15.6
2019-Dec-13 23:15 070 1 gusting 5 15.6
2019-Dec-13 23:00 063 1 gusting 4 15.6
2019-Dec-13 22:55 068 1 gusting 4 15.6
2019-Dec-13 22:45 067 1 gusting 2 15.6
2019-Dec-13 22:40 050 1 gusting 6 15.6
2019-Dec-13 22:35 056 1 gusting 5 15.6
2019-Dec-13 22:20 061 0 gusting 1 15.0
2019-Dec-13 22:10 068 0 gusting 1 15.0
2019-Dec-13 22:00 068 15.0
2019-Dec-13 21:45 068 15.0
2019-Dec-13 21:40 068 15.0
2019-Dec-13 21:30 069 1 gusting 2 15.0
2019-Dec-13 21:20 098 1 gusting 5 15.0
2019-Dec-13 21:15 078 0 gusting 5 15.0
2019-Dec-13 21:05 112 1 gusting 4 14.4
2019-Dec-13 20:55 076 1 gusting 2 14.4
2019-Dec-13 20:50 078 1 gusting 5 14.4
2019-Dec-13 20:45 083 1 gusting 5 14.4
2019-Dec-13 20:35 107 0 gusting 4 13.9
2019-Dec-13 20:30 100 1 gusting 4 13.9
2019-Dec-13 20:25 108 1 gusting 4 13.9
2019-Dec-13 20:15 112 0 gusting 2 13.9
2019-Dec-13 20:10 102 1 gusting 2 13.9
2019-Dec-13 20:05 112 0 gusting 1 13.9
2019-Dec-13 20:00 112 0 gusting 1 13.9
2019-Dec-13 19:55 112 1 gusting 2 13.9
2019-Dec-13 19:50 110 1 gusting 2 13.9
2019-Dec-13 19:30 107 0 gusting 1 13.9
2019-Dec-13 19:25 089 0 gusting 1 13.9
2019-Dec-13 19:15 107 0 gusting 2 13.9
2019-Dec-13 19:10 091 0 gusting 2 13.9
2019-Dec-13 19:05 068 13.3
2019-Dec-13 19:00 068 13.3
2019-Dec-13 18:55 063 0 gusting 1 13.3
2019-Dec-13 18:45 065 13.3
2019-Dec-13 18:35 031 0 gusting 2 13.3
2019-Dec-13 18:30 059 13.9
2019-Dec-13 18:25 068 13.9
2019-Dec-13 18:20 068 13.9
2019-Dec-13 18:05 058 13.9
2019-Dec-13 17:55 022 13.9
2019-Dec-13 17:45 045 13.9
2019-Dec-13 17:35 045 13.9
2019-Dec-13 17:25 022 13.9
2019-Dec-13 17:20 022 13.9
2019-Dec-13 17:05 032 0 gusting 1 13.3
2019-Dec-13 17:00 031 1 gusting 2 13.3
2019-Dec-13 16:50 054 0 gusting 1 13.3
2019-Dec-13 16:40 056 1 gusting 2 13.3
2019-Dec-13 16:35 067 1 gusting 4 12.8
2019-Dec-13 16:20 068 12.2
2019-Dec-13 16:00 060 11.1
2019-Dec-13 15:50 338 10.0
2019-Dec-13 15:45 338 9.4
2019-Dec-13 15:35 338 8.9
2019-Dec-13 15:25 293 8.3
2019-Dec-13 15:20 281 8.3
2019-Dec-13 15:15 250 8.3
2019-Dec-13 15:05 292 8.3
2019-Dec-13 14:55 292 7.8
2019-Dec-13 14:45 292 7.8
2019-Dec-13 14:40 292 7.8
2019-Dec-13 14:35 292 7.8
2019-Dec-13 14:30 292 7.8
2019-Dec-13 14:25 292 7.8
2019-Dec-13 14:10 292 7.2
2019-Dec-13 14:05 313 7.2
2019-Dec-13 13:55 298 7.2
2019-Dec-13 13:50 292 7.2
2019-Dec-13 13:35 292 6.7
2019-Dec-13 13:30 292 6.7
2019-Dec-13 13:25 292 6.7
2019-Dec-13 13:15 289 1 gusting 4 7.8
2019-Dec-13 13:05 267 1 gusting 1 7.8
2019-Dec-13 12:55 041 0 gusting 1 8.3
2019-Dec-13 12:50 112 8.3
2019-Dec-13 12:45 112 8.3
2019-Dec-13 12:40 112 8.3
2019-Dec-13 12:30 112 0 gusting 1 8.3
2019-Dec-13 12:25 074 8.3
2019-Dec-13 12:20 068 0 gusting 1 8.3
2019-Dec-13 12:15 134 7.8
2019-Dec-13 12:05 068 0 gusting 1 7.8
2019-Dec-13 11:50 072 0 gusting 1 7.2
2019-Dec-13 11:45 077 0 gusting 1 7.2
2019-Dec-13 11:40 081 0 gusting 1 7.2
2019-Dec-13 11:20 028 0 gusting 2 6.7
2019-Dec-13 11:15 070 0 gusting 2 6.1
2019-Dec-13 11:10 096 0 gusting 2 6.1
2019-Dec-13 11:00 109 1 gusting 2 5.6
2019-Dec-13 10:55 085 1 gusting 2 5.0
2019-Dec-13 10:45 114 0 gusting 1 4.4
2019-Dec-13 10:30 103 3.9
2019-Dec-13 05:10 064 1 gusting 2 -2.2
2019-Dec-13 05:05 055 1 gusting 1 -2.2
2019-Dec-13 04:55 022 -2.8
2019-Dec-13 04:50 022 -2.8
2019-Dec-13 04:40 022 -2.8
2019-Dec-13 04:30 045 0 gusting 1 -3.3
2019-Dec-13 04:20 045 -3.3
2019-Dec-13 04:15 045 -3.3
2019-Dec-13 03:50 202 -3.9
2019-Dec-13 03:45 058 -3.9
2019-Dec-13 03:35 068 -3.9
2019-Dec-13 03:30 068 -3.9
2019-Dec-13 03:25 068 -3.9
2019-Dec-13 03:00 068 -3.3
2019-Dec-13 02:55 068 -3.3
2019-Dec-13 02:50 068 -3.3
2019-Dec-13 02:40 068 -3.3
2019-Dec-13 02:30 068 -3.3
2019-Dec-13 02:15 068 -3.3
2019-Dec-13 02:10 068 -3.3
2019-Dec-13 02:05 068 -3.3
2019-Dec-13 02:00 068 -3.3
2019-Dec-13 01:55 068 -3.3
2019-Dec-13 01:45 068 -2.8
2019-Dec-13 01:35 068 0 gusting 0 -2.8
2019-Dec-13 01:15 112 -2.8
2019-Dec-13 01:00 112 -2.8
2019-Dec-13 00:55 112 -2.8
2019-Dec-13 00:50 112 -2.8
2019-Dec-13 00:45 112 -2.8
2019-Dec-13 00:40 112 -2.8
2019-Dec-13 00:35 112 -2.8
2019-Dec-13 00:30 112 -2.8
2019-Dec-13 00:25 112 -2.8
2019-Dec-13 00:20 112 -2.8
2019-Dec-13 00:05 112 -2.8
2019-Dec-13 00:00 112 -2.8
2019-Dec-12 23:55 112 -2.2
2019-Dec-12 23:50 112 -2.2
2019-Dec-12 23:45 112 -2.2
2019-Dec-12 23:30 112 -2.2
2019-Dec-12 23:05 112 -1.7
2019-Dec-12 23:00 112 -1.7
2019-Dec-12 22:45 112 -1.1
2019-Dec-12 22:40 112 -1.1
2019-Dec-12 22:25 112 -1.1
2019-Dec-12 22:15 112 -0.6
2019-Dec-12 22:10 112 -0.6
2019-Dec-12 22:05 112 -0.0
2019-Dec-12 22:00 112 -0.0
2019-Dec-12 21:55 112 -0.0
2019-Dec-12 21:45 112 0.6
2019-Dec-12 21:40 112 0 gusting 1 1.1
2019-Dec-12 21:35 112 0 gusting 2 1.1
2019-Dec-12 21:25 107 1 gusting 1 1.7
2019-Dec-12 21:15 112 1 gusting 2 1.7
2019-Dec-12 21:10 068 1 gusting 1 2.2
2019-Dec-12 21:05 068 1 gusting 1 2.2
2019-Dec-12 21:00 068 1 gusting 2 2.2
2019-Dec-12 20:55 112 1 gusting 4 2.8
2019-Dec-12 20:35 112 1 gusting 4 3.3
2019-Dec-12 20:30 076 1 gusting 4 3.3
2019-Dec-12 20:15 118 2 gusting 5 3.3
2019-Dec-12 20:05 094 2 gusting 5 3.9
2019-Dec-12 19:55 130 1 gusting 4 4.4
2019-Dec-12 19:50 103 1 gusting 4 4.4
2019-Dec-12 19:45 060 1 gusting 4 4.4
2019-Dec-12 19:40 090 1 gusting 4 4.4
2019-Dec-12 19:35 112 1 gusting 4 4.4
2019-Dec-12 19:20 158 0 gusting 4 4.4
2019-Dec-12 19:00 150 1 gusting 4 4.4
2019-Dec-12 18:45 192 1 gusting 4 4.4
2019-Dec-12 18:40 114 1 gusting 4 4.4
2019-Dec-12 18:35 076 1 gusting 2 4.4
2019-Dec-12 18:20 168 1 gusting 2 4.4
2019-Dec-12 18:05 161 1 gusting 2 4.4
2019-Dec-12 18:00 179 0 gusting 2 4.4
2019-Dec-12 17:55 167 1 gusting 2 5.0
2019-Dec-12 17:45 087 2 gusting 5 5.0
2019-Dec-12 17:30 195 0 gusting 1 5.0
2019-Dec-12 17:25 202 1 gusting 4 5.0
2019-Dec-12 17:20 244 0 gusting 4 5.0
2019-Dec-12 17:15 086 1 gusting 2 5.6
2019-Dec-12 17:10 165 0 gusting 2 6.1
2019-Dec-12 17:00 032 2 gusting 4 5.6
2019-Dec-12 16:50 067 1 gusting 4 5.6
2019-Dec-12 16:40 112 2 gusting 4 5.0
2019-Dec-12 16:35 009 1 gusting 4 5.0
2019-Dec-12 16:30 014 1 gusting 4 5.0
2019-Dec-12 16:25 307 1 gusting 4 4.4
2019-Dec-12 16:10 306 1 gusting 5 5.0
2019-Dec-12 16:00 029 1 gusting 4 5.0
2019-Dec-12 15:55 051 2 gusting 4 5.0
2019-Dec-12 15:50 340 1 gusting 4 5.0
2019-Dec-12 15:45 356 1 gusting 4 5.0
2019-Dec-12 15:40 357 1 gusting 4 5.0
2019-Dec-12 15:35 348 1 gusting 2 5.0
2019-Dec-12 15:30 042 1 gusting 2 4.4
2019-Dec-12 15:25 331 1 gusting 2 3.9
2019-Dec-12 15:20 043 0 gusting 4 4.4
2019-Dec-12 15:15 339 1 gusting 4 4.4
2019-Dec-12 15:00 035 0 gusting 1 3.9
2019-Dec-12 14:55 007 0 gusting 2 3.3
2019-Dec-12 14:50 073 1 gusting 2 3.9
2019-Dec-12 14:45 024 1 gusting 2 3.3
2019-Dec-12 14:35 292 1 gusting 4 3.3
2019-Dec-12 14:10 313 0 gusting 4 2.8
2019-Dec-12 13:55 330 1 gusting 5 1.7
2019-Dec-12 13:45 337 0 gusting 4 1.7
2019-Dec-12 13:30 022 0 gusting 2 -0.0
2019-Dec-12 13:25 019 0 gusting 2 -0.6
2019-Dec-12 13:20 346 0 gusting 2 -1.1
2019-Dec-12 13:15 338 -1.7
2019-Dec-12 13:10 338 -2.2
2019-Dec-12 13:05 338 -2.2